Location: Gallinara
(44.0333°N, 8.2333°E)
Time: 01:12:30
(UTC+00:00)

IRIDIUM 103 - Pass Details

Date: 25 September 2020
Orbit: 776 x 779 km, 86.4° (Epoch: 31 October)

Event Time Altitude Azimuth Distance (km) Brightness Sun altitude
Rises 03:23:34 0° 352° (N) 3,271 7.7 -21.0°
Reaches altitude 10° 03:25:59 10° 347° (NNW) 2,338 6.9 -20.6°
Maximum altitude 03:31:02 51° 273° (W) 969 4.4 -19.7°
Enters shadow 03:33:31 28° 211° (SSW) 1,429 5.3 -19.3°
